Location: Beadle
(51.4667°N, 109.0000°W)
Time: 05:20:44
(UTC+00:00)

Altair - Pass Details

Date: 02 June 2022
Orbit: 1501 x 1682 km, 47.2° (Epoch: 30 June)

Event Time Altitude Azimuth Distance (km) Brightness Sun altitude
Rises 21:46:18 0° 225° (SW) 4,779 10.7 48.6°
Reaches altitude 10° 21:49:29 10° 220° (SW) 3,821 10.4 48.2°
Maximum altitude 21:58:40 48° 150° (SSE) 2,063 8.7 46.9°
Drops below altitude 10° 22:08:09 10° 81° (E) 3,938 9.3 45.6°
Sets 22:11:28 0° 76° (ENE) 4,936 9.7 45.1°
